Change the Weather History Date:

Saturday, September 29, 2012

  Actual Average Record
Temperature  
Mean Temperature 54 °F -  
Max Temperature 62 °F 58 °F 80 °F (2011)
Min Temperature 46 °F 46 °F 42 °F (2003)
Degree Days  
Heating Degree Days 10    
Growing Degree Days 4 (Base 50)    
Moisture  
Dew Point 43 °F    
Average Humidity 70    
Maximum Humidity 94    
Minimum Humidity 32    
Precipitation  
Precipitation 0.00 in - - ()
Sea Level Pressure  
Sea Level Pressure 30.06 in    
Wind  
Wind Speed 8 mph ()    
Max Wind Speed 15 mph    
Max Gust Speed -    
Visibility 8.4 miles    
Events      
Averages and records for this station are not official NWS values.
T = Trace of Precipitation, MM = Missing Value Source: Averaged Metar Reports

Daily Weather History Graph

Daily Weather History Graph

Search for Another Location

Airport or City:

Trip Planner

Search our weather history database for the weather conditions in past years. The results will help you decide how hot, cold, wet, or windy it might be!

Date:

Astronomy

Sep. 29, 2012 Rise Set
Actual Time 6:59 AM BST 6:43 PM BST
Civil Twilight 6:26 AM BST 7:16 PM BST
Nautical Twilight 5:47 AM BST 7:55 PM BST
Astronomical Twilight 5:07 AM BST 8:35 PM BST
Moon 6:04 PM BST (9/29) 6:16 AM BST (9/29)
Length of Visible Light 12h 50m
Length of Day
11h 43m
Full, 100% of the Moon is Illuminated
Sep 29
Full
Sep 30
Full
Oct 8
Last Quarter
Oct 15
New
Oct 22
First Quarter

Hourly Weather History & Observations

Time (BST) Temp. Windchill Dew Point Humidity Pressure Visibility Wind Dir Wind Speed Gust Speed Precip Events Conditions
12:20 AM 51.8 °F - 48.2 °F 88% 29.95 in - SSW 4.6 mph - N/A   Clear
12:50 AM 51 °F - 47 °F 83% 29.95 in 17 mi West 4.6 mph - -   Mostly Cloudy
12:50 AM 51.8 °F - 48.2 °F 88% 29.95 in - West 5.8 mph - N/A   Clear
1:20 AM 51.8 °F - 48.2 °F 88% 29.95 in 6.2 mi WSW 8.1 mph - N/A   Unknown
1:50 AM 51.8 °F - 48.2 °F 88% 29.95 in 6.2 mi West 8.1 mph - N/A   Unknown
2:20 AM 51.8 °F - 48.2 °F 88% 29.95 in 6.2 mi West 9.2 mph - N/A   Unknown
2:50 AM 50.0 °F - 46.4 °F 87% 29.95 in - West 8.1 mph - N/A   Clear
3:20 AM 50.0 °F - 48.2 °F 94% 29.95 in - West 9.2 mph - N/A   Clear
3:50 AM 49 °F - 47 °F 88% 29.97 in 12 mi West 9.2 mph - -  
3:50 AM 50.0 °F - 46.4 °F 87% 29.95 in 6.2 mi West 9.2 mph - N/A   Unknown
4:20 AM 50.0 °F - 46.4 °F 87% 29.98 in - West 9.2 mph - N/A   Clear
4:50 AM 50.0 °F - 46.4 °F 87% 29.98 in - West 10.4 mph - N/A   Clear
5:20 AM 48.2 °F - 46.4 °F 93% 29.98 in - West 9.2 mph - N/A   Clear
5:50 AM 48.2 °F - 46.4 °F 93% 29.98 in - WNW 5.8 mph - N/A   Clear
6:20 AM 48.2 °F - 46.4 °F 93% 30.01 in - West 6.9 mph - N/A   Clear
6:50 AM 48 °F - 46 °F 89% 30.01 in 8 mi West 5.8 mph - -  
6:50 AM 48.2 °F - 44.6 °F 87% 30.01 in - West 6.9 mph - N/A   Clear
7:20 AM 48.2 °F - 46.4 °F 93% 30.01 in - West 6.9 mph - N/A   Clear
7:50 AM 48.2 °F - 46.4 °F 93% 30.04 in - West 8.1 mph - N/A   Clear
8:20 AM 50.0 °F - 46.4 °F 87% 30.04 in - West 10.4 mph - N/A   Clear
8:50 AM 50.0 °F - 46.4 °F 87% 30.06 in - West 11.5 mph - N/A   Clear
9:20 AM 51.8 °F - 46.4 °F 82% 30.06 in - West 10.4 mph - N/A   Clear
9:50 AM 53 °F - 46 °F 68% 30.08 in 14 mi West 12.7 mph - -  
9:50 AM 53.6 °F - 46.4 °F 77% 30.06 in 6.2 mi West 13.8 mph - N/A   Partly Cloudy
10:20 AM 55.4 °F - 46.4 °F 72% 30.09 in 6.2 mi West 12.7 mph - N/A   Partly Cloudy
10:50 AM 57.2 °F - 44.6 °F 63% 30.09 in 6.2 mi WNW 11.5 mph - N/A   Partly Cloudy
11:20 AM 57.2 °F - 42.8 °F 59% 30.09 in 6.2 mi WNW 10.4 mph - N/A   Partly Cloudy
11:50 AM 59.0 °F - 41.0 °F 51% 30.09 in 6.2 mi WNW 12.7 mph - N/A   Scattered Clouds
12:20 PM 59.0 °F - 41.0 °F 51% 30.09 in 6.2 mi NW 10.4 mph - N/A   Scattered Clouds
12:50 PM 58 °F - 40 °F 39% 30.10 in 16 mi WNW 11.5 mph - -  
12:50 PM 59.0 °F - 39.2 °F 48% 30.09 in 6.2 mi WNW 11.5 mph - N/A   Scattered Clouds
1:20 PM 60.8 °F - 39.2 °F 45% 30.09 in 6.2 mi WNW 11.5 mph - N/A   Scattered Clouds
1:50 PM 60.8 °F - 39.2 °F 45% 30.09 in 6.2 mi West 11.5 mph - N/A   Scattered Clouds
2:20 PM 59.0 °F - 39.2 °F 48% 30.09 in 6.2 mi WNW 11.5 mph - N/A   Scattered Clouds
2:50 PM 59.0 °F - 39.2 °F 48% 30.09 in 6.2 mi WNW 8.1 mph - N/A   Scattered Clouds
3:20 PM 59.0 °F - 39.2 °F 48% 30.09 in 6.2 mi WNW 10.4 mph - N/A   Scattered Clouds
3:50 PM 62 °F - 40 °F 32% 30.11 in 16 mi West 13.8 mph - -   Mostly Cloudy
3:50 PM 60.8 °F - 39.2 °F 45% 30.09 in 6.2 mi West 11.5 mph - N/A   Scattered Clouds
4:20 PM 60.8 °F - 39.2 °F 45% 30.09 in 6.2 mi West 15.0 mph - N/A   Partly Cloudy
4:50 PM 59.0 °F - 39.2 °F 48% 30.09 in 6.2 mi WNW 9.2 mph - N/A   Partly Cloudy
5:20 PM 59.0 °F - 39.2 °F 48% 30.09 in - NW 6.9 mph - N/A   Clear
5:50 PM 57.2 °F - 37.4 °F 48% 30.09 in 6.2 mi NW 6.9 mph - N/A   Partly Cloudy
6:20 PM 57.2 °F - 39.2 °F 51% 30.12 in - WNW 6.9 mph - N/A   Clear
6:50 PM 56 °F - 40 °F 45% 30.13 in 16 mi West 5.8 mph - -   Scattered Clouds
6:50 PM 55.4 °F - 41.0 °F 58% 30.12 in - WNW 5.8 mph - N/A   Clear
7:20 PM 53.6 °F - 41.0 °F 62% 30.12 in - West 8.1 mph - N/A   Clear
7:50 PM 53.6 °F - 41.0 °F 62% 30.15 in - West 6.9 mph - N/A   Clear
8:20 PM 53.6 °F - 41.0 °F 62% 30.15 in - West 8.1 mph - N/A   Clear
8:50 PM 51.8 °F - 42.8 °F 71% 30.15 in - West 8.1 mph - N/A   Clear
9:20 PM 50.0 °F - 42.8 °F 76% 30.15 in - West 8.1 mph - N/A   Clear
9:50 PM 51 °F - 42 °F 61% 30.17 in 11 mi West 6.9 mph - -  
9:50 PM 50.0 °F - 41.0 °F 71% 30.15 in - West 6.9 mph - N/A   Clear
10:20 PM 50.0 °F - 41.0 °F 71% 30.15 in - WNW 6.9 mph - N/A   Clear
10:50 PM 48.2 °F - 41.0 °F 76% 30.15 in - West 6.9 mph - N/A   Clear
11:20 PM 48.2 °F - 42.8 °F 82% 30.18 in - West 6.9 mph - N/A   Clear
11:50 PM 46.4 °F 42.9 °F 41.0 °F 81% 30.18 in - West 6.9 mph - N/A   Clear